Stations météo

réclame
Mon MeteoGroup
Kew Gardens, Grande-Bretagne (99095): Température de l'air & dewpoint: 16.01.2020 12:00:00 - 22.01.2020 12:00:00 (GMT)Kew Gardens, Grande-Bretagne (99095): Température de l'air -20cm & Température de l'air -100cm: 16.01.2020 12:00:00 - 22.01.2020 12:00:00 (GMT)Kew Gardens, Grande-Bretagne (99095): Vitesse du vent & gusts: 16.01.2020 12:00:00 - 22.01.2020 12:00:00 (GMT)Kew Gardens, Grande-Bretagne (99095): Direction du vent: 16.01.2020 12:00:00 - 22.01.2020 12:00:00 (GMT)Kew Gardens, Grande-Bretagne (99095): Quantités de précipitations: 16.01.2020 12:00:00 - 22.01.2020 12:00:00 (GMT)
Date & Time tt [°C] td [°C] tt -20cm [°C] tt -100cm [°C] ff [km/h] ff [knt] fx [km/h] fx [knt] dd rr [mm]
22.01.2020 12:00:00 5,7 5,6 - - 0 0 - - N -
22.01.2020 11:00:00 5,2 5,1 - - 2 1 - - SSW 0,0
22.01.2020 10:00:00 4,2 4,1 - - 2 1 - - S 0,0
22.01.2020 09:00:00 3,5 3,4 4,5 8,2 2 1 - - SW 0,0
22.01.2020 08:00:00 3,3 3,2 - - 2 1 - - WSW 0,0
22.01.2020 07:00:00 3,2 3,1 - - 2 1 - - NW 0,0
22.01.2020 06:00:00 2,8 2,7 - - 4 2 - - WNW 0,0
22.01.2020 05:00:00 2,5 2,5 - - 2 1 - - NW 0,0
22.01.2020 04:00:00 2,2 2,1 - - 2 1 - - NW 0,0
22.01.2020 03:00:00 1,8 1,7 - - 2 1 - - SSW 0,0
22.01.2020 02:00:00 1,2 1,1 - - 2 1 - - WSW 0,0
22.01.2020 01:00:00 0,7 0,5 - - 4 2 - - WSW 0,0
22.01.2020 00:00:00 0,2 0,0 - - 4 2 - - NW 0,0
21.01.2020 23:00:00 0,1 -0,1 - - 2 1 - - W 0,0
21.01.2020 22:00:00 -0,9 -1,2 - - 2 1 - - W 0,0
21.01.2020 21:00:00 -0,5 -0,7 - - 4 2 - - WSW 0,0
21.01.2020 20:00:00 -0,4 -0,8 - - 2 1 - - W 0,0
21.01.2020 19:00:00 -0,1 -0,7 - - 4 2 - - WSW 0,0
21.01.2020 18:00:00 0,9 0,2 - - 2 1 - - WSW 0,0
21.01.2020 17:00:00 2,6 1,0 - - 2 1 - - W 0,0
21.01.2020 16:00:00 5,7 2,1 - - 5 3 - - WSW 0,0
21.01.2020 15:00:00 8,3 2,5 - - 5 3 - - W 0,0
21.01.2020 14:00:00 8,1 3,3 - - 8 4 - - WNW 0,0
21.01.2020 13:00:00 7,3 3,5 - - 4 2 - - WSW 0,0
21.01.2020 12:00:00 5,0 3,1 - - 4 2 - - S 0,2
21.01.2020 11:00:00 2,0 1,6 - - 5 3 - - SSW 0,0
21.01.2020 10:00:00 -0,2 -0,4 - - 4 2 - - SW 0,0
21.01.2020 09:00:00 -1,7 -1,9 4,7 8,4 2 1 - - W 0,0
21.01.2020 08:00:00 -2,0 -2,2 - - 2 1 - - SW 0,0
21.01.2020 07:00:00 -2,3 -2,6 - - 4 2 - - SSW 0,0
21.01.2020 06:00:00 -2,8 -3,2 - - 2 1 - - SW 0,0
21.01.2020 05:00:00 -2,8 -3,2 - - 4 2 - - WSW 0,0
21.01.2020 04:00:00 -2,6 -3,0 - - 2 1 - - SSW 0,0
21.01.2020 03:00:00 -2,5 -2,8 - - 0 0 - - N 0,0
21.01.2020 02:00:00 -1,6 -1,8 - - 4 2 - - WNW 0,0
21.01.2020 01:00:00 -1,8 -2,1 - - 4 2 - - SW 0,0
21.01.2020 00:00:00 -2,0 -2,4 - - 2 1 - - SW 0,0
20.01.2020 23:00:00 -2,0 -2,3 - - 4 2 - - SSW 0,0
20.01.2020 22:00:00 -1,4 -1,8 - - 2 1 - - S 0,0
20.01.2020 21:00:00 -0,6 -0,9 - - 4 2 - - WNW 0,0
20.01.2020 20:00:00 -0,5 -1,0 - - 2 1 - - W 0,0
20.01.2020 19:00:00 0,3 -0,3 - - 4 2 - - W 0,0
20.01.2020 18:00:00 1,4 0,5 - - 4 2 - - W 0,0
20.01.2020 17:00:00 2,7 0,6 - - 4 2 - - SSW 0,0
20.01.2020 16:00:00 5,6 1,1 - - 4 2 - - SSW 0,0
20.01.2020 15:00:00 8,1 1,9 - - 4 2 - - SW 0,0
20.01.2020 14:00:00 7,9 2,0 - - 4 2 - - SW 0,0
20.01.2020 13:00:00 5,3 2,5 - - 2 1 - - S 0,0
20.01.2020 12:00:00 5,0 1,6 - - 4 2 - - SSW 0,0
20.01.2020 11:00:00 3,6 1,3 - - 5 3 - - W 0,0
20.01.2020 10:00:00 2,6 1,8 - - 2 1 - - SSW 0,0
20.01.2020 09:00:00 1,1 0,9 5,0 8,7 2 1 - - SSW 0,0
20.01.2020 08:00:00 0,4 0,2 - - 2 1 - - S 0,0
20.01.2020 07:00:00 0,2 0,0 - - 4 2 - - S 0,0
20.01.2020 06:00:00 -0,4 -0,8 - - 2 1 - - W 0,0
20.01.2020 05:00:00 -0,4 -0,9 - - 4 2 - - SSW 0,0
20.01.2020 04:00:00 0,6 0,1 - - 2 1 - - SSW 0,0
20.01.2020 03:00:00 1,3 0,3 - - 4 2 - - NW 0,0
20.01.2020 02:00:00 0,3 0,2 - - 4 2 - - SW 0,0
20.01.2020 01:00:00 0,2 0,0 - - 2 1 - - S 0,0
20.01.2020 00:00:00 -0,1 -0,3 - - 4 2 - - W 0,0
19.01.2020 23:00:00 -0,7 -0,8 - - 4 2 - - WSW 0,0
19.01.2020 22:00:00 -2,1 -2,5 - - 4 2 - - WSW 0,0
19.01.2020 21:00:00 -1,6 -2,1 - - 4 2 - - WNW 0,0
19.01.2020 20:00:00 -0,9 -1,5 - - 2 1 - - S 0,0
19.01.2020 19:00:00 -0,1 -1,5 - - 0 0 - - N 0,0
19.01.2020 18:00:00 3,6 1,3 - - 4 2 - - N 0,0
19.01.2020 17:00:00 4,5 0,8 - - 8 4 - - NW 0,0
19.01.2020 16:00:00 6,8 1,1 - - 4 2 - - NNW 0,0
19.01.2020 15:00:00 7,6 1,0 - - 4 2 - - N 0,0
19.01.2020 14:00:00 7,4 1,0 - - 5 3 - - NNW 0,0
19.01.2020 13:00:00 6,9 0,8 - - 4 2 - - N 0,0
19.01.2020 12:00:00 5,6 0,6 - - 9 5 - - NW 0,2
19.01.2020 11:00:00 3,5 0,5 - - 8 4 - - WNW 0,0
19.01.2020 10:00:00 0,4 0,3 - - 4 2 - - W 0,0
19.01.2020 09:00:00 -2,3 -2,6 5,7 9,0 4 2 - - WSW 0,0
19.01.2020 08:00:00 -2,9 -3,3 - - 4 2 - - W 0,0
19.01.2020 07:00:00 -1,9 -2,3 - - 5 3 - - NW 0,0
19.01.2020 06:00:00 -0,1 -0,3 - - 9 5 - - NW 0,0
19.01.2020 05:00:00 -1,4 -1,6 - - 5 3 - - NW 0,0
19.01.2020 04:00:00 -1,5 -1,7 - - 4 2 - - NW 0,0
19.01.2020 03:00:00 -1,7 -2,0 - - 2 1 - - W 0,0
19.01.2020 02:00:00 -1,6 -1,9 - - 4 2 - - W 0,0
19.01.2020 01:00:00 -1,3 -1,5 - - 4 2 - - W 0,0
19.01.2020 00:00:00 -1,1 -1,4 - - 5 3 - - W 0,0
18.01.2020 23:00:00 -1,1 -1,6 - - 5 3 - - NW 0,0
18.01.2020 22:00:00 -0,4 -0,8 - - 8 4 - - NW 0,0
18.01.2020 21:00:00 -0,6 -1,0 - - 5 3 - - W 0,0
18.01.2020 20:00:00 -0,3 -0,9 - - 5 3 - - NW 0,0
18.01.2020 19:00:00 0,5 -0,5 - - 2 1 - - WNW 0,0
18.01.2020 18:00:00 1,5 -0,2 - - 5 3 - - NW 0,0
18.01.2020 17:00:00 5,3 0,8 - - 5 3 - - NNW 0,0
18.01.2020 16:00:00 6,2 0,7 - - 8 4 - - NW 0,0
18.01.2020 15:00:00 7,5 0,1 - - 13 7 - - NW 0,0
18.01.2020 14:00:00 8,0 0,5 - - 9 5 - - NW 0,0
18.01.2020 13:00:00 7,1 1,8 - - 8 4 - - WNW 0,0
18.01.2020 12:00:00 7,1 2,1 - - 5 3 - - W 0,0
18.01.2020 11:00:00 5,7 4,1 - - 5 3 - - WSW 0,2
18.01.2020 10:00:00 1,3 1,3 - - 4 2 - - WSW 0,0
18.01.2020 09:00:00 -1,4 -1,6 7,0 9,2 5 3 - - WSW 0,0
18.01.2020 08:00:00 -1,4 -1,6 - - 5 3 - - SW 0,0
18.01.2020 07:00:00 -1,3 -1,5 - - 4 2 - - SW 0,0
18.01.2020 06:00:00 -1,3 -1,6 - - 4 2 - - WSW 0,0
18.01.2020 05:00:00 -1,1 -1,5 - - 4 2 - - W 0,0
18.01.2020 04:00:00 -0,3 -0,7 - - 4 2 - - WSW 0,0
18.01.2020 03:00:00 0,9 -0,1 - - 5 3 - - W 0,0
18.01.2020 02:00:00 1,4 0,7 - - 8 4 - - W 0,0
18.01.2020 01:00:00 2,3 1,7 - - 9 5 - - W 0,0
18.01.2020 00:00:00 1,3 0,5 - - 5 3 - - WSW 0,0
17.01.2020 23:00:00 2,3 1,2 - - 5 3 - - WSW 0,0
17.01.2020 22:00:00 2,6 1,0 - - 5 3 - - WSW 0,0
17.01.2020 21:00:00 3,5 1,5 - - 5 3 - - WSW 0,0
17.01.2020 20:00:00 3,6 2,2 - - 5 3 - - SW 0,0
17.01.2020 19:00:00 4,1 1,9 - - 8 4 - - SW 0,0
17.01.2020 18:00:00 5,3 1,8 - - 8 4 - - WSW 0,0
17.01.2020 17:00:00 6,2 2,3 - - 9 5 - - WSW 0,0
17.01.2020 16:00:00 6,9 2,1 - - 16 9 - - W 0,0
17.01.2020 15:00:00 7,6 1,2 - - 18 10 - - W 0,0
17.01.2020 14:00:00 8,4 2,1 - - 21 11 50 27 W 0,0
17.01.2020 13:00:00 8,0 2,4 - - 21 11 54 29 W 0,0
17.01.2020 12:00:00 8,1 3,4 - - 18 10 50 27 WSW 0,0
17.01.2020 11:00:00 8,9 5,1 - - 15 8 - - WSW 0,0
17.01.2020 10:00:00 8,9 6,2 - - 13 7 - - SW 0,0
17.01.2020 09:00:00 7,8 6,8 8,0 9,2 8 4 - - S 0,0
17.01.2020 08:00:00 7,1 6,2 - - 8 4 - - S 0,0
17.01.2020 07:00:00 7,6 6,6 - - 5 3 - - SSW 0,6
17.01.2020 06:00:00 9,5 8,7 - - 8 4 - - SW 0,8
17.01.2020 05:00:00 9,3 8,1 - - 9 5 - - S 0,0
17.01.2020 04:00:00 9,9 8,6 - - 8 4 - - S 0,0
17.01.2020 03:00:00 10,1 9,2 - - 8 4 - - S 0,0
17.01.2020 02:00:00 10,2 9,4 - - 8 4 - - S 0,0
17.01.2020 01:00:00 10,0 9,1 - - 5 3 - - S 0,0
17.01.2020 00:00:00 10,5 9,5 - - 9 5 - - S 0,4
16.01.2020 23:00:00 10,7 9,7 - - 11 6 - - SSW 0,6
16.01.2020 22:00:00 11,0 9,8 - - 13 7 - - S 0,8
16.01.2020 21:00:00 11,0 9,6 - - 18 10 - - SSW 0,4
16.01.2020 20:00:00 10,9 9,5 - - 15 8 - - S 1,6
16.01.2020 19:00:00 12,1 8,4 - - 16 9 - - S 0,2
16.01.2020 18:00:00 11,8 7,8 - - 18 10 - - S 0,0
16.01.2020 17:00:00 11,8 7,3 - - 16 9 - - S 0,0
16.01.2020 16:00:00 11,1 7,4 - - 13 7 - - S 0,2
16.01.2020 15:00:00 11,2 7,0 - - 16 9 - - S 0,0
16.01.2020 14:00:00 10,9 7,2 - - 18 10 - - SSE 0,0
16.01.2020 13:00:00 11,4 7,2 - - 13 7 - - S 0,0
16.01.2020 12:00:00 9,7 6,4 - - 18 10 - - SSE 0,0

tt = Température de l'air
td = dewpoint
tt -20cm = Température de l'air -20cm
tt -100cm = Température de l'air -100cm
ff = Vitesse du vent
fx = gusts
dd = Direction du vent
rr = Quantités de précipitations

stations d'obs. à proximité